Location: Karcze
(52.0945°N, 22.4786°E)
Time: 20:41:56
(UTC+00:00)

Transit 2A Rocket - Pass Details

Date: 29 July 2021
Orbit: 586 x 917 km, 66.7° (Epoch: 27 September)

Event Time Altitude Azimuth Distance (km) Brightness Sun altitude
Rises 21:11:59 0° 321° (NW) 3,197 9.6 -17.0°
Reaches altitude 10° 21:14:17 10° 322° (NW) 2,320 8.6 -17.1°
Maximum altitude 21:19:40 82° 51° (NE) 836 5.1 -17.4°
Enters shadow 21:23:00 26° 137° (SE) 1,600 6.1 -17.6°
Drops below altitude 10° 21:25:31 10° 139° (SE) 2,514 - -17.7°
Sets 21:28:05 0° 140° (SE) 3,483 - -17.8°
